M I D A S
Marine Information and Data Acquisition System
Tripno 1117 of the Zeeleeuw from 2006-06-28 06:48:05 to 2006-06-28 13:31:50
Back to CruiseResearch ActivitiesStationsMapUnderway DataData graphs

EquipmentUnitsComments
TimeDGPSUTC
LatitudeDGPSDM.mWGS84
LongitudeDGPSDM.mWGS84
SpeedMeteo Stationm/sRelative wind speed
DirectionMeteo StationdegRelative wind direction
TemperatureMeteo Stationdeg CelciusAir temperature
PressureMeteo StationPaAtmospheric pressure
HumidityMeteo Station%Relative humidity
Missing or incorrect values are displayed as -999
Metereological data collected by the RV Zeeleeuw from 2006-06-28 06:48:06 to 2006-06-28 13:44:32
Time Latitude Longitude Speed Direction Temperature Pressure Humidity
2006-06-28 06:49 51°13.61 2°56.062 0.8 341 15.6 102120 71
2006-06-28 06:50 51°13.633 2°55.982 0.7 37 15.7 102120 71
2006-06-28 06:51 51°13.66 2°55.889 1.3 270 15.5 102130 70
2006-06-28 06:52 51°13.695 2°55.803 1.7 260 15.5 102130 71
2006-06-28 06:53 51°13.723 2°55.735 1.9 246 15.5 102130 71
2006-06-28 06:54 51°13.731 2°55.725 2.7 343 15.5 102130 70
2006-06-28 06:55 51°13.729 2°55.72 1.9 8 15.5 102130 69
2006-06-28 06:56 51°13.751 2°55.714 1.8 4 15.4 102130 70
2006-06-28 06:57 51°13.829 2°55.638 5.5 341 15.3 102130 70
2006-06-28 06:58 51°13.946 2°55.55 7.8 346 15.1 102130 71
2006-06-28 06:59 51°14.051 2°55.475 5.5 354 14.8 102120 71
2006-06-28 07:00 51°14.172 2°55.379 5.9 356 14.6 102130 71
2006-06-28 07:01 51°14.289 2°55.205 6.8 351 14.5 102130 73
2006-06-28 07:02 51°14.393 2°54.972 5.6 3 14.4 102130 73
2006-06-28 07:03 51°14.49 2°54.684 6.4 354 14.3 102130 73
2006-06-28 07:04 51°14.599 2°54.382 7.7 350 14.2 102120 75
2006-06-28 07:05 51°14.732 2°54.104 8.2 348 14.2 102120 76
2006-06-28 07:06 51°14.906 2°53.913 10.1 349 14.1 102110 76
2006-06-28 07:07 51°15.087 2°53.764 8.8 348 14.1 102120 75
2006-06-28 07:08 51°15.267 2°53.603 9.1 346 14 102130 75
2006-06-28 07:09 51°15.444 2°53.432 8.9 346 14 102130 75
2006-06-28 07:10 51°15.623 2°53.264 9.5 348 14 102130 74
2006-06-28 07:11 51°15.803 2°53.096 10.5 350 14 102130 75
2006-06-28 07:12 51°15.991 2°52.95 10.1 344 14.1 102130 75
2006-06-28 07:13 51°16.18 2°52.813 9.5 347 14 102140 75
2006-06-28 07:14 51°16.372 2°52.686 9.6 349 14 102130 75
2006-06-28 07:15 51°16.564 2°52.557 10.2 345 14 102130 74
2006-06-28 07:16 51°16.755 2°52.435 9.2 346 14 102120 75
2006-06-28 07:17 51°16.946 2°52.317 8.8 346 14 102140 75
2006-06-28 07:18 51°17.136 2°52.198 10.4 346 14 102130 75
2006-06-28 07:19 51°17.334 2°52.112 10.2 344 14 102140 74
2006-06-28 07:20 51°17.498 2°51.947 8.3 354 14 102140 73
2006-06-28 07:21 51°17.596 2°51.648 6.7 356 14 102140 75
2006-06-28 07:22 51°17.632 2°51.294 5.9 354 14 102150 75
2006-06-28 07:23 51°17.708 2°50.961 7.4 353 14 102150 76
2006-06-28 07:24 51°17.781 2°50.619 8.2 353 13.9 102150 75
2006-06-28 07:25 51°17.852 2°50.273 8.3 355 14 102150 76
2006-06-28 07:26 51°17.928 2°49.93 7.1 356 13.9 102150 75
2006-06-28 07:27 51°18.011 2°49.592 6.8 357 13.9 102160 75
2006-06-28 07:28 51°18.096 2°49.257 8.2 355 13.9 102150 76
2006-06-28 07:29 51°18.188 2°48.933 7.6 349 13.9 102150 75
2006-06-28 07:30 51°18.298 2°48.622 8.4 354 13.9 102140 76
2006-06-28 07:31 51°18.412 2°48.321 8.8 350 13.9 102150 76
2006-06-28 07:32 51°18.518 2°47.997 8.1 356 13.9 102150 76
2006-06-28 07:33 51°18.612 2°47.666 7.1 352 13.9 102150 77
2006-06-28 07:34 51°18.714 2°47.345 8.3 356 13.9 102150 76
2006-06-28 07:35 51°18.814 2°47.028 7.6 352 13.9 102140 76
2006-06-28 07:36 51°18.917 2°46.696 7.6 357 13.9 102150 77
2006-06-28 07:37 51°19.019 2°46.365 9.6 358 14 102140 78
2006-06-28 07:38 51°19.122 2°46.038 8.6 358 13.9 102130 76
2006-06-28 07:39 51°19.225 2°45.711 7.7 358 13.9 102150 76
2006-06-28 07:40 51°19.331 2°45.386 8.5 356 13.9 102140 76
2006-06-28 07:41 51°19.44 2°45.06 7.4 355 13.8 102140 75
2006-06-28 07:42 51°19.537 2°44.727 9.3 357 13.9 102150 77
2006-06-28 07:43 51°19.627 2°44.394 9.2 358 13.9 102160 76
2006-06-28 07:44 51°19.708 2°44.052 7.8 357 13.8 102150 76
2006-06-28 07:45 51°19.789 2°43.706 7 357 13.8 102160 76
2006-06-28 07:46 51°19.865 2°43.355 7.5 358 13.9 102160 77
2006-06-28 07:47 51°19.942 2°43.004 6.7 355 13.8 102160 77
2006-06-28 07:48 51°20.02 2°42.655 7.1 356 13.8 102170 77
2006-06-28 07:49 51°20.098 2°42.306 6.1 354 13.7 102160 77
2006-06-28 07:50 51°20.171 2°41.953 7.1 352 13.8 102180 78
2006-06-28 07:51 51°20.238 2°41.597 6.2 350 13.8 102170 78
2006-06-28 07:52 51°20.283 2°41.233 5.7 349 13.7 102180 77
2006-06-28 07:53 51°20.328 2°40.871 6.3 350 13.7 102180 77
2006-06-28 07:54 51°20.37 2°40.494 5.8 350 13.7 102190 76
2006-06-28 07:55 51°20.409 2°40.126 5.3 356 13.8 102180 77
2006-06-28 07:56 51°20.443 2°39.75 5.4 355 13.7 102180 77
2006-06-28 07:57 51°20.478 2°39.386 6.9 355 13.8 102190 77
2006-06-28 07:58 51°20.515 2°39.006 6 351 13.8 102190 77
2006-06-28 07:59 51°20.549 2°38.637 6.4 353 13.8 102190 78
2006-06-28 08:00 51°20.589 2°38.261 5.3 348 13.7 102200 78
2006-06-28 08:01 51°20.626 2°37.882 6 354 13.7 102200 79
2006-06-28 08:02 51°20.667 2°37.506 6.4 355 13.7 102200 78
2006-06-28 08:03 51°20.706 2°37.133 5.3 352 13.7 102200 78
2006-06-28 08:04 51°20.744 2°36.756 5.6 355 13.7 102200 78
2006-06-28 08:05 51°20.784 2°36.368 4.7 353 13.6 102210 77
2006-06-28 08:06 51°20.821 2°36 5.5 359 13.7 102200 77
2006-06-28 08:07 51°20.856 2°35.63 6.5 355 13.7 102210 77
2006-06-28 08:08 51°20.893 2°35.247 6.2 350 13.7 102200 77
2006-06-28 08:09 51°20.927 2°34.86 5.6 354 13.8 102200 77
2006-06-28 08:10 51°20.946 2°34.482 5.3 351 13.8 102210 77
2006-06-28 08:11 51°20.961 2°34.078 6.4 356 13.8 102200 77
2006-06-28 08:12 51°20.975 2°33.678 6.6 354 13.7 102200 78
2006-06-28 08:13 51°20.991 2°33.284 5.9 358 13.7 102200 77
2006-06-28 08:14 51°21.007 2°32.877 5.6 1 13.7 102190 78
2006-06-28 08:15 51°21.021 2°32.485 5.5 352 13.7 102200 77
2006-06-28 08:16 51°21.036 2°32.081 5.2 350 13.8 102200 78
2006-06-28 08:17 51°21.054 2°31.691 7.3 357 13.7 102190 78
2006-06-28 08:18 51°21.079 2°31.292 7.3 358 13.7 102190 78
2006-06-28 08:19 51°21.127 2°30.89 6.3 4 13.7 102190 78
2006-06-28 08:20 51°21.232 2°30.554 8.6 354 13.7 102180 79
2006-06-28 08:21 51°21.358 2°30.242 7.8 356 13.6 102190 78
2006-06-28 08:22 51°21.466 2°29.929 8.6 357 13.6 102180 78
2006-06-28 08:23 51°21.584 2°29.606 7.8 350 13.6 102190 78
2006-06-28 08:24 51°21.699 2°29.293 7.7 351 13.6 102190 78
2006-06-28 08:25 51°21.816 2°28.968 8.1 353 13.6 102180 78
2006-06-28 08:26 51°21.934 2°28.649 8.5 356 13.6 102180 79
2006-06-28 08:27 51°22.057 2°28.329 7.7 354 13.6 102190 79
2006-06-28 08:28 51°22.177 2°28.022 8.8 356 13.6 102190 79
2006-06-28 08:29 51°22.296 2°27.708 7.6 353 13.6 102180 80
2006-06-28 08:30 51°22.416 2°27.395 7.3 350 13.6 102180 80
2006-06-28 08:31 51°22.535 2°27.08 7 352 13.5 102190 79
2006-06-28 08:32 51°22.662 2°26.779 7.3 351 13.5 102190 79
2006-06-28 08:33 51°22.813 2°26.516 9.3 353 13.5 102180 80
2006-06-28 08:34 51°22.945 2°26.325 9.2 355 13.5 102190 79
2006-06-28 08:35 51°23.061 2°26.182 8 351 13.5 102190 80
2006-06-28 08:36 51°23.187 2°26.055 8.6 343 13.5 102200 80
2006-06-28 08:37 51°23.315 2°25.974 8.7 353 13.5 102180 80
2006-06-28 08:38 51°23.474 2°25.898 10.2 347 13.5 102200 80
2006-06-28 08:39 51°23.669 2°25.83 10.9 340 13.5 102190 79
2006-06-28 08:40 51°23.865 2°25.809 11.4 344 13.6 102190 80
2006-06-28 08:41 51°24.066 2°25.786 10.3 342 13.7 102190 78
2006-06-28 08:42 51°24.261 2°25.753 11.1 344 13.7 102200 77
2006-06-28 08:43 51°24.461 2°25.718 10.6 344 13.7 102200 77
2006-06-28 08:44 51°24.657 2°25.679 10.7 343 13.6 102200 77
2006-06-28 08:45 51°24.851 2°25.639 10.2 343 13.7 102200 78
2006-06-28 08:46 51°25.044 2°25.6 10.4 345 13.7 102200 78
2006-06-28 08:47 51°25.235 2°25.56 10.5 343 13.6 102200 78
2006-06-28 08:48 51°25.426 2°25.517 10.2 344 13.6 102210 78
2006-06-28 08:49 51°25.614 2°25.49 9.7 345 13.6 102200 78
2006-06-28 08:50 51°25.806 2°25.463 10 342 13.5 102210 78
2006-06-28 08:51 51°25.996 2°25.443 9.7 345 13.6 102200 77
2006-06-28 08:52 51°26.186 2°25.427 10.2 347 13.6 102210 78
2006-06-28 08:53 51°26.385 2°25.411 10.8 344 13.6 102210 79
2006-06-28 08:54 51°26.578 2°25.397 11.1 346 13.6 102210 78
2006-06-28 08:55 51°26.764 2°25.382 9.7 346 13.5 102210 78
2006-06-28 08:56 51°26.963 2°25.369 9.6 341 13.4 102210 78
2006-06-28 08:57 51°27.149 2°25.368 11.7 344 13.5 102210 78
2006-06-28 08:58 51°27.338 2°25.365 10.7 343 13.5 102210 77
2006-06-28 08:59 51°27.526 2°25.364 9.8 345 13.5 102210 77
2006-06-28 09:00 51°27.714 2°25.368 11 340 13.5 102220 78
2006-06-28 09:01 51°27.899 2°25.378 10 343 13.6 102230 78
2006-06-28 09:02 51°28.09 2°25.388 10.2 341 13.6 102210 77
2006-06-28 09:03 51°28.278 2°25.4 11.3 342 13.6 102220 77
2006-06-28 09:04 51°28.465 2°25.409 9.8 343 13.6 102210 77
2006-06-28 09:05 51°28.654 2°25.42 9.9 344 13.6 102220 77
2006-06-28 09:06 51°28.845 2°25.433 11 343 13.6 102220 78
2006-06-28 09:07 51°29.025 2°25.455 10.7 342 13.6 102210 77
2006-06-28 09:08 51°29.208 2°25.507 10.4 345 13.6 102220 78
2006-06-28 09:09 51°29.394 2°25.559 10.2 341 13.6 102220 77
2006-06-28 09:10 51°29.579 2°25.611 10.8 342 13.6 102230 77
2006-06-28 09:11 51°29.758 2°25.662 9.7 342 13.6 102230 77
2006-06-28 09:12 51°29.949 2°25.718 11.2 342 13.6 102220 77
2006-06-28 09:13 51°30.128 2°25.771 10.2 343 13.7 102220 77
2006-06-28 09:14 51°30.317 2°25.844 10.6 341 13.6 102220 76
2006-06-28 09:15 51°30.491 2°25.926 10.6 340 13.6 102220 76
2006-06-28 09:16 51°30.667 2°26.004 10.7 344 13.7 102230 76
2006-06-28 09:17 51°30.845 2°26.077 10.4 343 13.7 102220 75
2006-06-28 09:18 51°31.014 2°26.162 9.3 339 13.7 102220 75
2006-06-28 09:19 51°31.181 2°26.28 9.9 341 13.7 102220 75
2006-06-28 09:20 51°31.345 2°26.391 10.5 340 13.7 102220 75
2006-06-28 09:21 51°31.513 2°26.501 9.8 340 13.7 102220 75
2006-06-28 09:22 51°31.68 2°26.612 10.5 341 13.7 102220 76
2006-06-28 09:23 51°31.845 2°26.716 10.1 341 13.7 102220 75
2006-06-28 09:24 51°32.018 2°26.829 10 341 13.8 102230 76
2006-06-28 09:25 51°32.191 2°26.944 10 340 13.8 102220 75
2006-06-28 09:26 51°32.36 2°27.057 10.2 344 13.8 102230 75
2006-06-28 09:27 51°32.526 2°27.165 10.4 340 13.8 102230 75
2006-06-28 09:28 51°32.694 2°27.275 9.1 342 13.7 102220 75
2006-06-28 09:29 51°32.866 2°27.388 9.9 344 13.8 102230 76
2006-06-28 09:30 51°33.033 2°27.498 10.4 342 13.7 102230 76
2006-06-28 09:31 51°33.195 2°27.635 10.9 339 13.8 102230 75
2006-06-28 09:32 51°33.359 2°27.768 10.6 339 13.8 102230 75
2006-06-28 09:33 51°33.518 2°27.911 10 342 13.8 102210 75
2006-06-28 09:34 51°33.677 2°28.059 10.5 340 13.8 102220 75
2006-06-28 09:35 51°33.837 2°28.208 10.6 343 13.7 102220 75
2006-06-28 09:36 51°34.003 2°28.362 9.7 341 13.7 102220 75
2006-06-28 09:37 51°34.158 2°28.505 10.6 342 13.8 102220 76
2006-06-28 09:38 51°34.323 2°28.652 10 340 13.7 102230 75
2006-06-28 09:39 51°34.485 2°28.805 11 339 13.7 102230 75
2006-06-28 09:40 51°34.642 2°28.949 10.9 342 13.7 102230 75
2006-06-28 09:41 51°34.798 2°29.096 10.1 342 13.7 102220 75
2006-06-28 09:42 51°34.961 2°29.247 10.4 342 13.7 102220 75
2006-06-28 09:43 51°35.121 2°29.397 9.9 340 13.7 102220 75
2006-06-28 09:44 51°35.276 2°29.546 9.7 341 13.7 102210 75
2006-06-28 09:45 51°35.435 2°29.689 9.2 340 13.7 102230 75
2006-06-28 09:46 51°35.589 2°29.839 10.5 341 13.8 102220 76
2006-06-28 09:47 51°35.739 2°29.985 8.8 342 13.7 102220 75
2006-06-28 09:48 51°35.9 2°30.136 9.8 341 13.7 102220 75
2006-06-28 09:49 51°36.051 2°30.285 9.9 341 13.8 102220 75
2006-06-28 09:50 51°36.208 2°30.435 9.7 343 13.7 102210 74
2006-06-28 09:51 51°36.36 2°30.579 8.9 341 13.8 102220 75
2006-06-28 09:52 51°36.512 2°30.729 9.3 341 13.7 102230 75
2006-06-28 09:53 51°36.665 2°30.877 9 343 13.7 102230 74
2006-06-28 09:54 51°36.818 2°31.026 9 344 13.7 102220 75
2006-06-28 09:55 51°36.964 2°31.169 9 344 13.7 102220 75
2006-06-28 09:56 51°37.118 2°31.32 8.5 342 13.7 102220 75
2006-06-28 09:57 51°37.268 2°31.472 9.7 342 13.8 102220 76
2006-06-28 09:58 51°37.423 2°31.63 9.8 343 13.8 102220 75
2006-06-28 09:59 51°37.576 2°31.776 9.2 344 13.7 102210 74
2006-06-28 10:00 51°37.728 2°31.926 9.8 342 13.7 102210 74
2006-06-28 10:01 51°37.882 2°32.079 10.3 343 13.7 102210 75
2006-06-28 10:02 51°38.042 2°32.238 9.2 343 13.6 102220 75
2006-06-28 10:03 51°38.191 2°32.388 8.9 343 13.6 102210 75
2006-06-28 10:04 51°38.348 2°32.544 8.6 340 13.7 102220 75
2006-06-28 10:05 51°38.504 2°32.7 9.7 342 13.7 102210 75
2006-06-28 10:06 51°38.661 2°32.858 10.4 341 13.7 102210 75
2006-06-28 10:07 51°38.826 2°33.018 9.6 339 13.7 102210 75
2006-06-28 10:08 51°38.978 2°33.17 9.5 340 13.7 102210 75
2006-06-28 10:09 51°39.138 2°33.326 9.7 341 13.7 102210 74
2006-06-28 10:10 51°39.269 2°33.491 7 331 13.7 102200 74
2006-06-28 10:11 51°39.233 2°33.586 5.3 30 13.8 102210 74
2006-06-28 10:12 51°39.156 2°33.564 2.3 268 13.8 102210 74
2006-06-28 10:13 51°39.107 2°33.464 0.7 33 13.8 102220 73
2006-06-28 10:14 51°39.076 2°33.355 1.9 36 13.9 102210 73
2006-06-28 10:15 51°39.053 2°33.297 3.3 37 13.9 102220 72
2006-06-28 10:16 51°39.027 2°33.309 2 37 13.9 102220 74
2006-06-28 10:17 51°39.012 2°33.257 3.8 34 14.2 102230 72
2006-06-28 10:18 51°39.001 2°33.201 3.2 29 14.1 102220 72
2006-06-28 10:19 51°39.031 2°33.129 5.1 356 14 102230 72
2006-06-28 10:20 51°39.149 2°33.152 6.9 347 13.8 102210 72
2006-06-28 10:21 51°39.274 2°33.285 8.9 341 13.7 102210 74
2006-06-28 10:22 51°39.431 2°33.452 9.3 337 13.7 102210 73
2006-06-28 10:23 51°39.585 2°33.621 8.3 342 13.8 102200 74
2006-06-28 10:24 51°39.749 2°33.787 9.2 339 13.8 102200 74
2006-06-28 10:25 51°39.909 2°33.947 9.6 339 13.8 102210 73
2006-06-28 10:26 51°40.074 2°34.112 9.1 341 13.8 102200 73
2006-06-28 10:27 51°40.237 2°34.273 8.4 342 13.8 102190 73
2006-06-28 10:28 51°40.398 2°34.434 9.2 340 13.8 102200 74
2006-06-28 10:29 51°40.556 2°34.591 9.4 340 13.8 102220 74
2006-06-28 10:30 51°40.721 2°34.754 9.3 340 13.8 102210 74
2006-06-28 10:31 51°40.882 2°34.916 9.3 340 13.8 102210 74
2006-06-28 10:32 51°41.045 2°35.076 8.9 337 13.8 102210 74
2006-06-28 10:33 51°41.189 2°35.252 9.3 337 13.8 102210 74
2006-06-28 10:34 51°41.309 2°35.5 10.1 334 13.8 102210 74
2006-06-28 10:35 51°41.354 2°35.795 9.6 327 13.8 102210 73
2006-06-28 10:36 51°41.274 2°36.1 9 326 13.9 102200 73
2006-06-28 10:37 51°41.15 2°36.372 9.4 324 14 102210 73
2006-06-28 10:38 51°41.037 2°36.653 9.9 329 14 102210 73
2006-06-28 10:39 51°40.926 2°36.962 9.6 328 14.1 102210 71
2006-06-28 10:40 51°40.818 2°37.255 9.9 326 14 102200 71
2006-06-28 10:41 51°40.711 2°37.556 10 327 14.1 102190 71
2006-06-28 10:42 51°40.606 2°37.853 10 326 14.1 102190 70
2006-06-28 10:43 51°40.499 2°38.16 9.5 324 14.2 102190 70
2006-06-28 10:44 51°40.399 2°38.459 9 328 14.2 102190 71
2006-06-28 10:45 51°40.294 2°38.761 8.8 328 14.3 102190 71
2006-06-28 10:46 51°40.191 2°39.064 9.2 325 14.3 102190 70
2006-06-28 10:47 51°40.089 2°39.366 10.2 330 14.3 102200 70
2006-06-28 10:48 51°39.981 2°39.677 10.2 327 14.2 102190 70
2006-06-28 10:49 51°39.882 2°39.967 9.7 325 14.2 102200 69
2006-06-28 10:50 51°39.781 2°40.267 9.5 326 14.2 102200 70
2006-06-28 10:51 51°39.673 2°40.577 9.1 326 14.3 102200 70
2006-06-28 10:52 51°39.573 2°40.878 9.5 325 14.3 102200 71
2006-06-28 10:53 51°39.46 2°41.17 9.6 325 14.3 102200 70
2006-06-28 10:54 51°39.296 2°41.391 8.7 320 14.3 102190 70
2006-06-28 10:55 51°39.104 2°41.578 8.3 322 14.3 102200 69
2006-06-28 10:56 51°38.902 2°41.749 8.4 320 14.4 102190 69
2006-06-28 10:57 51°38.69 2°41.896 8.4 318 14.4 102200 68
2006-06-28 10:58 51°38.453 2°41.911 6.4 317 14.5 102200 68
2006-06-28 10:59 51°38.219 2°41.827 5.8 320 14.4 102200 69
2006-06-28 11:00 51°37.988 2°41.694 5.9 26 14.4 102200 69
2006-06-28 11:01 51°37.763 2°41.533 5.9 29 14.4 102200 69
2006-06-28 11:02 51°37.56 2°41.294 4.1 37 14.4 102200 69
2006-06-28 11:03 51°37.421 2°40.976 3.7 334 14.4 102220 71
2006-06-28 11:04 51°37.354 2°40.611 3.5 336 14.4 102210 70
2006-06-28 11:05 51°37.336 2°40.226 4.2 346 14.3 102210 69
2006-06-28 11:06 51°37.322 2°39.856 4.2 340 14.2 102210 71
2006-06-28 11:07 51°37.306 2°39.48 3.8 340 14.1 102210 70
2006-06-28 11:08 51°37.288 2°39.106 3.9 347 14.1 102220 71
2006-06-28 11:09 51°37.273 2°38.732 3.4 342 14 102210 71
2006-06-28 11:10 51°37.262 2°38.353 4.8 345 14 102220 70
2006-06-28 11:11 51°37.251 2°37.987 3.7 336 14 102210 71
2006-06-28 11:12 51°37.24 2°37.609 4 342 14 102220 70
2006-06-28 11:13 51°37.235 2°37.238 4.4 341 14 102220 70
2006-06-28 11:14 51°37.238 2°36.867 3.9 341 14 102220 70
2006-06-28 11:15 51°37.248 2°36.498 4.5 338 14 102220 71
2006-06-28 11:16 51°37.257 2°36.127 4.4 342 14 102220 71
2006-06-28 11:17 51°37.242 2°35.761 3.8 338 14 102220 72
2006-06-28 11:18 51°37.222 2°35.386 3.7 338 14 102230 71
2006-06-28 11:19 51°37.205 2°35 3.7 339 14 102210 70
2006-06-28 11:20 51°37.184 2°34.623 4.1 332 14.1 102220 72
2006-06-28 11:21 51°37.092 2°34.274 4.9 328 14.1 102220 71
2006-06-28 11:22 51°36.927 2°33.977 4.7 322 14.2 102210 71
2006-06-28 11:23 51°36.734 2°33.758 5.7 317 14.2 102220 71
2006-06-28 11:24 51°36.509 2°33.634 6.1 315 14.2 102210 70
2006-06-28 11:25 51°36.281 2°33.5 5.6 40 14.2 102210 69
2006-06-28 11:26 51°36.06 2°33.365 5.6 22 14.2 102210 70
2006-06-28 11:27 51°35.836 2°33.23 5.8 26 14.2 102210 70
2006-06-28 11:28 51°35.608 2°33.101 5.3 25 14.1 102210 70
2006-06-28 11:29 51°35.386 2°32.985 6.6 19 14.1 102200 71
2006-06-28 11:30 51°35.152 2°32.879 6.2 23 14.1 102200 71
2006-06-28 11:31 51°34.926 2°32.765 5.8 315 14.1 102200 71
2006-06-28 11:32 51°34.701 2°32.662 5.5 317 14.1 102210 71
2006-06-28 11:33 51°34.469 2°32.553 5.6 318 14.1 102210 71
2006-06-28 11:34 51°34.248 2°32.443 4.8 25 14.2 102210 71
2006-06-28 11:35 51°34.02 2°32.333 5.2 316 14.2 102210 71
2006-06-28 11:36 51°33.784 2°32.31 6.9 27 14.2 102200 71
2006-06-28 11:37 51°33.555 2°32.287 6.6 24 14.1 102200 70
2006-06-28 11:38 51°33.318 2°32.259 6.6 33 14.1 102200 70
2006-06-28 11:39 51°33.084 2°32.235 7 31 14.2 102200 71
2006-06-28 11:40 51°32.847 2°32.21 6.5 38 14.1 102190 71
2006-06-28 11:41 51°32.609 2°32.181 6.5 38 14.1 102200 70
2006-06-28 11:42 51°32.372 2°32.15 6.6 34 14.1 102190 71
2006-06-28 11:43 51°32.135 2°32.124 6.1 20 14.1 102200 71
2006-06-28 11:44 51°31.9 2°32.102 5.5 28 14.1 102190 71
2006-06-28 11:45 51°31.671 2°32.082 6.9 28 14.2 102190 72
2006-06-28 11:46 51°31.434 2°32.084 6.6 23 14.1 102190 71
2006-06-28 11:47 51°31.212 2°32.126 7.7 20 14.1 102180 71
2006-06-28 11:48 51°31.048 2°32.357 9 23 14.2 102180 71
2006-06-28 11:49 51°30.873 2°32.59 8.7 23 14.2 102170 71
2006-06-28 11:50 51°30.699 2°32.815 8.8 27 14.2 102170 71
2006-06-28 11:51 51°30.529 2°33.041 9.3 23 14.2 102170 71
2006-06-28 11:52 51°30.353 2°33.269 8.8 26 14.2 102170 71
2006-06-28 11:53 51°30.185 2°33.486 9.3 27 14.2 102170 72
2006-06-28 11:54 51°30.029 2°33.748 10.5 315 14.4 102160 72
2006-06-28 11:55 51°29.92 2°34.035 11.2 320 14.2 102160 71
2006-06-28 11:56 51°29.874 2°34.376 10.9 321 14.4 102160 72
2006-06-28 11:57 51°29.827 2°34.692 10.2 317 14.5 102160 71
2006-06-28 11:58 51°29.686 2°34.967 9.1 30 14.4 102170 71
2006-06-28 11:59 51°29.537 2°35.231 9.7 39 14.4 102160 71
2006-06-28 12:00 51°29.388 2°35.499 10 34 14.4 102160 71
2006-06-28 12:01 51°29.236 2°35.772 9.3 31 14.3 102160 72
2006-06-28 12:02 51°29.089 2°36.044 9.9 37 14.3 102150 72
2006-06-28 12:03 51°28.941 2°36.307 9 37 14.5 102160 72
2006-06-28 12:04 51°28.788 2°36.579 9.5 34 14.3 102150 72
2006-06-28 12:05 51°28.63 2°36.836 9.3 38 14.3 102150 72
2006-06-28 12:06 51°28.469 2°37.08 9.1 25 14.3 102150 71
2006-06-28 12:07 51°28.297 2°37.324 9.7 235 14.3 102160 72
2006-06-28 12:08 51°28.12 2°37.551 10.3 234 14.3 102150 72
2006-06-28 12:09 51°27.94 2°37.773 8.9 37 14.4 102150 71
2006-06-28 12:10 51°27.758 2°37.996 7.9 234 14.4 102150 71
2006-06-28 12:11 51°27.561 2°38.183 6.8 231 14.4 102150 71
2006-06-28 12:12 51°27.365 2°38.36 8.6 32 14.4 102140 71
2006-06-28 12:13 51°27.15 2°38.515 7.8 34 14.5 102150 70
2006-06-28 12:14 51°26.94 2°38.664 7.2 237 14.6 102140 71
2006-06-28 12:15 51°26.73 2°38.81 8 31 14.6 102140 70
2006-06-28 12:16 51°26.519 2°38.95 7.3 31 14.6 102130 70
2006-06-28 12:17 51°26.311 2°39.083 7.1 239 14.6 102140 70
2006-06-28 12:18 51°26.104 2°39.199 7.5 26 14.6 102150 71
2006-06-28 12:19 51°25.896 2°39.32 7 237 14.7 102150 70
2006-06-28 12:20 51°25.695 2°39.44 6.3 29 14.7 102130 71
2006-06-28 12:21 51°25.49 2°39.548 6.3 33 14.7 102140 71
2006-06-28 12:22 51°25.274 2°39.663 6.9 235 14.7 102140 70
2006-06-28 12:23 51°25.063 2°39.777 6.4 243 14.7 102140 70
2006-06-28 12:24 51°24.857 2°39.888 7.7 244 14.8 102130 71
2006-06-28 12:25 51°24.639 2°39.966 6.5 249 14.8 102140 70
2006-06-28 12:26 51°24.421 2°40.041 6.5 246 14.9 102130 70
2006-06-28 12:27 51°24.203 2°40.124 6.4 246 14.9 102140 69
2006-06-28 12:28 51°23.984 2°40.208 5.9 244 15 102140 69
2006-06-28 12:29 51°23.764 2°40.299 6.4 246 15 102140 69
2006-06-28 12:30 51°23.544 2°40.387 6.1 241 15 102140 69
2006-06-28 12:31 51°23.326 2°40.476 6.2 242 15.1 102140 69
2006-06-28 12:32 51°23.113 2°40.549 6.2 246 15.1 102140 69
2006-06-28 12:33 51°22.905 2°40.621 5.3 240 15.1 102140 69
2006-06-28 12:34 51°22.69 2°40.701 6.3 244 15.1 102130 67
2006-06-28 12:35 51°22.478 2°40.785 6.6 245 15.1 102140 67
2006-06-28 12:36 51°22.272 2°40.902 6.8 24 15.2 102130 67
2006-06-28 12:37 51°22.075 2°41.025 7.2 237 15.1 102130 67
2006-06-28 12:38 51°21.863 2°41.162 7.4 240 15.1 102130 68
2006-06-28 12:39 51°21.657 2°41.29 6.6 25 15.1 102130 69
2006-06-28 12:40 51°21.459 2°41.421 6.6 26 15.1 102130 68
2006-06-28 12:41 51°21.251 2°41.557 9.1 27 15.1 102130 69
2006-06-28 12:42 51°21.052 2°41.732 7.2 242 15 102130 68
2006-06-28 12:43 51°20.888 2°41.961 10.9 23 15 102120 69
2006-06-28 12:44 51°20.727 2°42.228 9 235 15 102120 69
2006-06-28 12:45 51°20.596 2°42.518 11 22 14.9 102110 68
2006-06-28 12:46 51°20.47 2°42.813 8.6 30 14.9 102110 68
2006-06-28 12:47 51°20.356 2°43.121 10.5 36 14.9 102110 69
2006-06-28 12:48 51°20.244 2°43.434 11 21 14.9 102100 70
2006-06-28 12:49 51°20.131 2°43.731 9.7 25 14.9 102100 69
2006-06-28 12:50 51°20.012 2°44.019 11.8 28 14.9 102100 69
2006-06-28 12:51 51°19.898 2°44.307 10.5 235 14.9 102100 69
2006-06-28 12:52 51°19.786 2°44.585 11.5 25 15 102100 71
2006-06-28 12:53 51°19.667 2°44.889 10.9 31 15 102100 70
2006-06-28 12:54 51°19.552 2°45.182 11.3 36 15 102090 70
2006-06-28 12:55 51°19.429 2°45.494 10.2 234 15 102090 70
2006-06-28 12:56 51°19.312 2°45.788 10.8 37 15 102100 70
2006-06-28 12:57 51°19.195 2°46.092 12.3 236 15 102090 70
2006-06-28 12:58 51°19.079 2°46.395 10.9 237 15 102090 71
2006-06-28 12:59 51°18.966 2°46.695 12.3 235 15 102100 71
2006-06-28 13:00 51°18.856 2°46.989 11.6 233 15 102100 70
2006-06-28 13:01 51°18.736 2°47.289 10.4 36 15 102100 70
2006-06-28 13:02 51°18.616 2°47.583 10.3 33 15 102100 71
2006-06-28 13:03 51°18.499 2°47.888 12 233 15.1 102100 72
2006-06-28 13:04 51°18.388 2°48.198 10.6 234 15.1 102100 72
2006-06-28 13:05 51°18.283 2°48.514 10.8 32 15.1 102090 72
2006-06-28 13:06 51°18.179 2°48.847 11.8 34 15.1 102090 72
2006-06-28 13:07 51°18.081 2°49.178 12.1 34 15 102080 71
2006-06-28 13:08 51°17.986 2°49.509 11.8 235 15 102080 71
2006-06-28 13:09 51°17.89 2°49.835 11.5 33 15.1 102090 72
2006-06-28 13:10 51°17.79 2°50.169 12.5 34 15.1 102080 72
2006-06-28 13:11 51°17.695 2°50.481 12.2 237 15.1 102080 72
2006-06-28 13:12 51°17.589 2°50.812 11.4 239 15.1 102070 73
2006-06-28 13:13 51°17.473 2°51.121 11.5 242 15.1 102080 73
2006-06-28 13:14 51°17.345 2°51.406 10.3 239 15.2 102080 74
2006-06-28 13:15 51°17.204 2°51.681 10 242 15.2 102080 73
2006-06-28 13:16 51°17.062 2°51.952 10 243 15.2 102090 73
2006-06-28 13:17 51°16.892 2°52.188 9.4 247 15.3 102090 72
2006-06-28 13:18 51°16.718 2°52.389 9 252 15.3 102090 73
2006-06-28 13:19 51°16.534 2°52.599 8 245 15.4 102090 73
2006-06-28 13:20 51°16.349 2°52.807 8.2 250 15.4 102090 72
2006-06-28 13:21 51°16.166 2°52.996 8.1 253 15.5 102090 72
2006-06-28 13:22 51°15.979 2°53.178 8.7 247 15.5 102090 72
2006-06-28 13:23 51°15.794 2°53.361 8.8 249 15.6 102090 72
2006-06-28 13:24 51°15.608 2°53.541 6.9 248 15.6 102090 72
2006-06-28 13:25 51°15.422 2°53.721 7.2 252 15.6 102090 72
2006-06-28 13:26 51°15.242 2°53.907 7.7 250 15.6 102090 72
2006-06-28 13:27 51°15.073 2°54.083 7.2 249 15.7 102100 72
2006-06-28 13:28 51°14.902 2°54.27 9 247 15.8 102090 73
2006-06-28 13:29 51°14.739 2°54.452 8.1 250 15.8 102090 72
2006-06-28 13:30 51°14.585 2°54.67 9 248 15.7 102090 72
2006-06-28 13:31 51°14.442 2°54.909 9 241 15.7 102080 72
2006-06-28 13:32 51°14.314 2°55.168 8.5 31 15.7 102070 72
2006-06-28 13:33 51°14.193 2°55.356 5.9 249 15.7 102090 73
2006-06-28 13:34 51°14.078 2°55.445 4.2 259 15.7 102100 74
2006-06-28 13:35 51°13.977 2°55.517 4.3 250 15.7 102100 73
2006-06-28 13:36 51°13.863 2°55.604 6 257 15.8 102100 72
2006-06-28 13:37 51°13.764 2°55.702 3.7 253 15.9 102100 71
2006-06-28 13:38 51°13.71 2°55.793 4.9 43 15.9 102100 71
2006-06-28 13:39 51°13.68 2°55.866 5.1 248 15.9 102090 71
2006-06-28 13:40 51°13.655 2°55.925 3.9 262 16.1 102100 71
2006-06-28 13:41 51°13.634 2°55.979 4.5 261 16.2 102090 70
2006-06-28 13:42 51°13.618 2°56.04 4.4 243 16.3 102090 69
2006-06-28 13:43 51°13.608 2°56.08 2.9 263 16.4 102090 68
2006-06-28 13:44 51°13.6 2°56.095 4.5 263 16.5 102090 68